Terug naar catalogus

STARLINK-37443

ActiefCommunicatieSSO
NORAD 68824·PAYLOAD·🇺🇸 United States

Gelanceerd Apr 23, 2026 vanaf Vandenberg Space Force Base

Loading…

Volgende Passages (komende 24 uur)

TLE

VersSource: CelesTrak SupGP

Epoch: Sep 14, 2026, 21:30 UTC

1 68824C 26089Y   26257.89631944  .00068549  00000+0  21290-2 0  2573
2 68824  97.2848 103.7993 0001829  93.3823 284.1665 15.33387617    15

Volg STARLINK-37443 in realtime met AllMySat

Download on the App Store